Location: Newark
(37.8333°N, 119.5000°W)
Time: 14:38:57
(UTC+00:00)

Tiros 1 despin weight - Pass Details

Date: 28 August 2019
Orbit: 594 x 642 km, 48.2° (Epoch: 20 September)

Event Time Altitude Azimuth Distance (km) Brightness Sun altitude
Rises 03:16:19 0° 188° (S) 2,812 ? -8.7°
Reaches altitude 10° 03:19:30 10° 164° (SSE) 1,915 ? -9.3°
Maximum altitude 03:21:52 14° 131° (SE) 1,649 ? -9.7°
Enters shadow 03:22:56 13° 114° (ESE) 1,708 ? -9.9°
